OPS 0856 DEB, 27724

Orbit data source: Space-Track

OPS 0856 DEB, 27724 is space debris in LEO originally from a launch on Fri, 19 Aug 1966 UTC launched from the Air Force Western Test Range (AFWTR). Debris objects in space refer to the collection of defunct objects orbiting the Earth. Examples of debris include non-operational satellites, rocket bodies, and fragments generated from explosions, collisions, or faulty payload assembly.

Loading next visibility...
Identifier
27724, 1966-077AC
Orbit
LEO
Last TLE update
10 months ago
Origin
Manufacturer
Unknown
Mission
Spacecraft
Bus & Motor
Unknown
Mass
Unknown
Launch date (UTC)
1966-08-19 (59 years ago)
Launch vehicle
Unknown
Launch site
Air Force Western Test Range (AFWTR)
Object type
Payload
Rocket body
Debris
Shape & HBR
Unknown
Radar Cross Section
Small (<0.1 m²)

Expand to show TLE details & history

TLE from 10 months ago
0 OPS 0856 DEB
1 27724U 66077AC  24232.93446642  .00000319  00000-0  54220-1 0  9996
2 27724  89.4978 220.2823 1303233 319.0474  53.8356  8.79425084 92515
Epoch: 2024-08-19T22:25Z
TLE epoch observation values (Epoch: 2024-08-19T22:25:37.898Z)
Latitude
26.12028°
Longitude
-84.63863°
Altitude
2,899.242 km
Speed
6.765 km/s
True Right ascension
14h 42m 06s
True Declination
26° 00' 57"
Sunlit
Object was in daylight at epoch
Visualization orbit readout
Latitude
2.04878°
Longitude
-90.95111°
Altitude
2,381.711 km
Speed
7.129 km/s
Apparent Right ascension
12h 50m 28s
Apparent Declination
-17° 37' 46"
Sunlit
Object is in daylight
Visualization observer readout
Local Sidereal Time
22:05:57
Azimuth
290.013° WNW
Elevation
-48.151°
Doppler factor
1
Orbital elements
Apogee altitude
4,825.846 km
Perigee altitude
2,242.266 km
Semi-major axis
9,912.193 km
Eccentricity
0.13032
Inclination
89.4978°
RAAN
220.2823°
Arg. of periapsis
319.0474°
True anomaly
Unknown
Mean anomaly
53.8356°
Eccentric anomaly
Unknown
Mean motion
2.19932 °/min
Orbital period
163.69 mins
BSTAR
0.05422
Loading maneuver chart data...
Loading SW <> Apogee altitude chart data...
Loading historical data...
Loading historical data...
Loading historical data...
Loading historical data...
Loading historical data...
Loading historical data...
Loading historical data...

OPS 0856 DEB Visibility forecast

Observer location: undefined°, undefined°

Span
Click to sort rows by Start time (UTC) header in descending order
Start Az.
Max El. time (UTC)
Max El. Az.
Max El.
End time (UTC)
End Az.
36 mins2025-07-01 11:10:29.941Z13.367° NNE2025-07-01 11:28:29.941Z64.614° ENE22.151°2025-07-01 11:46:29.941Z111.532° ESE
48 mins2025-07-01 13:53:29.941Z2.376° NNE2025-07-01 14:15:29.941Z85.539° E44.634°2025-07-01 14:41:29.941Z181.31° SSW
38 mins2025-07-01 16:37:29.941Z351.061° N2025-07-01 16:55:29.941Z296.508° NW30.605°2025-07-01 17:15:29.941Z242.959° WSW
23 mins2025-07-02 00:14:29.941Z106.496° ESE2025-07-02 00:24:29.941Z56.674° ENE25.404°2025-07-02 00:37:29.941Z9.404° NNE
30 mins2025-07-02 02:52:29.941Z187.951° SSW2025-07-02 03:04:29.941Z277.365° WNW43.821°2025-07-02 03:22:29.941Z357.968° N
14 mins2025-07-02 05:48:29.941Z287.667° WNW2025-07-02 05:54:29.941Z312.321° NW14.014°2025-07-02 06:02:29.941Z340.027° N
|